Weather History for Brno, Czech Republic

Change the Weather History Date:

Monday, March 25, 2013

  Actual Average Record
Temperature  
Mean Temperature 24 °F -  
Max Temperature 28 °F 56 °F - ()
Min Temperature 21 °F 38 °F - ()
Degree Days  
Heating Degree Days 40    
Moisture  
Dew Point 14 °F    
Average Humidity 63    
Maximum Humidity 86    
Minimum Humidity 30    
Precipitation  
Precipitation 0.02 in 0.04 in - ()
Sea Level Pressure  
Sea Level Pressure 29.95 in    
Wind  
Wind Speed 18 mph ()    
Max Wind Speed 26 mph    
Max Gust Speed 36 mph    
Visibility 4.4 miles    
Events Snow    
T = Trace of Precipitation, MM = Missing Value Source: Averaged Metar Reports

Daily Weather History Graph

Daily Weather History Graph

Search for Another Location

Airport:

Trip Planner

Search our weather history database for the weather conditions in past years. The results will help you decide how hot, cold, wet, or windy it might be!

Date:

Astronomy

Mar. 25, 2013 Rise Set
Actual Time 5:45 AM CET 6:13 PM CET
Civil Twilight 5:13 AM CET 6:45 PM CET
Nautical Twilight 4:35 AM CET 7:23 PM CET
Astronomical Twilight 3:56 AM CET 8:03 PM CET
Moon 4:20 PM CET (3/25) 4:28 AM CET (3/25)
Length of Visible Light 13h 32m
Length of Day
12h 28m
Waxing Gibbous, 95% of the Moon is Illuminated
Mar 25
Waxing Gibbous
Mar 27
Full
Apr 3
Last Quarter
Apr 10
New
Apr 18
First Quarter

Hourly Weather History & Observations

Time (CET) Temp. Windchill Dew Point Humidity Pressure Visibility Wind Dir Wind Speed Gust Speed Precip Events Conditions
12:00 AM 24.8 °F 10.7 °F 10.4 °F 54% 30.06 in - ENE 19.6 mph - N/A   Clear
12:30 AM 24.8 °F 10.3 °F 10.4 °F 54% 30.06 in - ENE 20.7 mph - N/A   Clear
1:00 AM 25 °F - 6 °F 30% 30.13 in 16 mi ENE 17.9 mph - -   Overcast
1:00 AM 24.8 °F 11.1 °F 10.4 °F 54% 30.06 in - ENE 18.4 mph - N/A   Clear
1:30 AM 24.8 °F 10.7 °F 10.4 °F 54% 30.04 in - ENE 19.6 mph - N/A   Clear
2:00 AM 24.8 °F 11.1 °F 8.6 °F 50% 30.04 in - ENE 18.4 mph - N/A   Clear
2:30 AM 24.8 °F 11.5 °F 8.6 °F 50% 30.04 in - ENE 17.3 mph - N/A   Clear
3:00 AM 24.8 °F 11.1 °F 8.6 °F 50% 30.04 in - ENE 18.4 mph - N/A   Clear
3:30 AM 24.8 °F 10.3 °F 8.6 °F 50% 30.01 in - ENE 20.7 mph - N/A   Clear
4:00 AM 24.8 °F 11.1 °F 10.4 °F 54% 30.01 in - ENE 18.4 mph - N/A   Clear
4:30 AM 24.8 °F 11.5 °F 10.4 °F 54% 30.01 in - ENE 17.3 mph - N/A   Clear
5:00 AM 24.8 °F 12.4 °F 10.4 °F 54% 30.01 in - ENE 15.0 mph - N/A   Clear
5:30 AM 24.8 °F 11.9 °F 8.6 °F 50% 30.01 in - ENE 16.1 mph - N/A   Clear
5:41 AM 23.0 °F 9.2 °F 8.6 °F 54% 30.01 in 6.2 mi ENE 17.3 mph - N/A Snow Light Snow
6:00 AM 23.0 °F 8.7 °F 8.6 °F 54% 30.01 in 6.2 mi ENE 18.4 mph - N/A Snow Light Snow
6:30 AM 23.0 °F 9.6 °F 12.2 °F 63% 30.01 in 6.2 mi NE 16.1 mph - N/A   Overcast
6:41 AM 23.0 °F 9.6 °F 12.2 °F 63% 30.01 in 6.2 mi NE 16.1 mph - N/A Snow Light Snow
7:00 AM 23 °F - 11 °F 47% 30.10 in 6 mi NE 15.7 mph - - Snow Light Snow
7:00 AM 23.0 °F 10.1 °F 12.2 °F 63% 30.01 in 6.2 mi ENE 15.0 mph - N/A Snow Light Snow
7:06 AM 23.0 °F 9.2 °F 12.2 °F 63% 30.04 in 3.1 mi NE 17.3 mph - N/A Snow Light Snow
7:23 AM 21.2 °F 7.3 °F 15.8 °F 80% 30.04 in - NE 16.1 mph - N/A Snow Light Snow
7:30 AM 21.2 °F 7.3 °F 15.8 °F 80% 30.04 in 1.9 mi NE 16.1 mph - N/A Snow Light Snow
8:00 AM 21.2 °F 6.0 °F 15.8 °F 80% 30.01 in 2.2 mi ENE 19.6 mph - N/A Snow Light Snow
8:30 AM 21.2 °F 6.0 °F 15.8 °F 80% 30.01 in 2.5 mi NE 19.6 mph - N/A Snow Light Snow
9:00 AM 21.2 °F 6.8 °F 17.6 °F 86% 30.01 in 1.9 mi NE 17.3 mph - N/A Snow Light Snow
9:30 AM 21.2 °F 6.8 °F 17.6 °F 86% 30.01 in 1.6 mi ENE 17.3 mph - N/A Snow Light Snow
9:51 AM 21.2 °F 6.4 °F 17.6 °F 86% 30.01 in 0.9 mi ENE 18.4 mph - N/A Snow Snow
10:00 AM 23.0 °F 8.3 °F 17.6 °F 80% 30.01 in 0.7 mi ENE 19.6 mph - N/A Snow Snow
10:20 AM 23.0 °F 9.2 °F 19.4 °F 86% 29.98 in 0.6 mi NE 17.3 mph - N/A Snow Snow
10:30 AM 23.0 °F 8.3 °F 19.4 °F 86% 29.98 in 0.6 mi ENE 19.6 mph - N/A Snow Snow
10:38 AM 23.0 °F 8.3 °F 19.4 °F 86% 29.98 in 0.7 mi NE 19.6 mph - N/A Snow Snow
11:00 AM 23.0 °F 8.3 °F 19.4 °F 86% 29.98 in 1.2 mi ENE 19.6 mph - N/A Snow Snow
11:30 AM 24.8 °F 10.7 °F 17.6 °F 74% 29.98 in 1.9 mi ENE 19.6 mph - N/A Snow Light Snow
12:00 PM 26.6 °F 12.7 °F 17.6 °F 69% 29.95 in 2.2 mi ENE 20.7 mph - N/A Snow Light Snow
12:17 PM 26.6 °F 12.4 °F 15.8 °F 64% 29.95 in 3.1 mi NE 21.9 mph - N/A Snow Light Snow
12:30 PM 26.6 °F 13.1 °F 17.6 °F 69% 29.95 in 4.3 mi ENE 19.6 mph - N/A Snow Light Snow
12:51 PM 28.4 °F 14.7 °F 17.6 °F 64% 29.92 in 1.9 mi ENE 21.9 mph - N/A Snow Snow
1:00 PM 27 °F - 15 °F 48% 30.00 in 2 mi ENE 20.1 mph - - Snow Snow
1:00 PM 26.6 °F 12.4 °F 17.6 °F 69% 29.92 in 1.9 mi ENE 21.9 mph - N/A Snow Snow
1:16 PM 26.6 °F 12.7 °F 17.6 °F 69% 29.92 in 1.6 mi ENE 20.7 mph - N/A Snow Snow
1:30 PM 26.6 °F 12.7 °F 17.6 °F 69% 29.92 in 1.6 mi ENE 20.7 mph - N/A Snow Snow
1:55 PM 28.4 °F 15.4 °F 17.6 °F 64% 29.92 in - NE 19.6 mph - N/A Snow Snow
2:00 PM 28.4 °F 15.1 °F 17.6 °F 64% 29.92 in 3.7 mi NE 20.7 mph - N/A Snow Light Snow
2:30 PM 28.4 °F 15.1 °F 17.6 °F 64% 29.92 in 6.2 mi ENE 20.7 mph - N/A Snow Light Snow
3:00 PM 28.4 °F 15.1 °F 17.6 °F 64% 29.92 in 6.2 mi ENE 20.7 mph - N/A Snow Light Snow
3:30 PM 26.6 °F 12.7 °F 17.6 °F 69% 29.89 in 6.2 mi ENE 20.7 mph - N/A   Mostly Cloudy
4:00 PM 28.4 °F 15.8 °F 17.6 °F 64% 29.89 in 6.2 mi NE 18.4 mph - N/A   Overcast
4:30 PM 28.4 °F 16.2 °F 15.8 °F 59% 29.89 in 6.2 mi NE 17.3 mph - N/A Snow Light Snow
5:00 PM 28.4 °F 16.2 °F 15.8 °F 59% 29.89 in 6.2 mi NE 17.3 mph - N/A Snow Light Snow
5:30 PM 28.4 °F 15.8 °F 15.8 °F 59% 29.86 in 6.2 mi NE 18.4 mph - N/A Snow Light Snow
6:00 PM 26.6 °F 13.8 °F 15.8 °F 64% 29.86 in 6.2 mi ENE 17.3 mph - N/A Snow Light Snow
6:30 PM 26.6 °F 13.4 °F 15.8 °F 64% 29.86 in 6.2 mi NE 18.4 mph - N/A Snow Light Snow
7:00 PM 27 °F - 13 °F 42% 29.94 in 7 mi NE 20.1 mph - - Snow Light Snow
7:00 PM 26.6 °F 13.1 °F 15.8 °F 64% 29.86 in 6.2 mi NE 19.6 mph - N/A Snow Light Snow
7:30 PM 26.6 °F 12.7 °F 15.8 °F 64% 29.86 in 6.2 mi NE 20.7 mph - N/A Snow Light Snow
8:00 PM 26.6 °F 11.7 °F 14.0 °F 59% 29.86 in 6.2 mi NE 24.2 mph - N/A Snow Light Snow
8:23 PM 26.6 °F 11.7 °F 14.0 °F 59% 29.86 in 6.2 mi NE 24.2 mph 35.7 mph N/A Snow Light Snow
8:30 PM 26.6 °F 11.7 °F 14.0 °F 59% 29.86 in 6.2 mi NE 24.2 mph 35.7 mph N/A   Partly Cloudy
9:00 PM 26.6 °F 11.7 °F 14.0 °F 59% 29.83 in - NE 24.2 mph - N/A   Clear
9:11 PM 26.6 °F 11.7 °F 14.0 °F 59% 29.83 in - NE 24.2 mph 35.7 mph N/A   Clear
9:30 PM 26.6 °F 12.7 °F 12.2 °F 55% 29.83 in - NE 20.7 mph 32.2 mph N/A   Clear
10:00 PM 26.6 °F 11.4 °F 14.0 °F 59% 29.83 in - NE 25.3 mph - N/A   Clear
10:05 PM 26.6 °F 11.7 °F 14.0 °F 59% 29.83 in 6.2 mi NE 24.2 mph 35.7 mph N/A Snow Light Snow
10:30 PM 26.6 °F 12.0 °F 14.0 °F 59% 29.83 in 6.2 mi NE 23.0 mph - N/A Snow Light Snow
10:41 PM 26.6 °F 12.0 °F 14.0 °F 59% 29.83 in 6.2 mi NE 23.0 mph 34.5 mph N/A Snow Light Snow
11:00 PM 26.6 °F 11.1 °F 12.2 °F 55% 29.83 in - NE 26.5 mph - N/A   Clear
11:30 PM 26.6 °F 12.4 °F 12.2 °F 55% 29.83 in - NE 21.9 mph - N/A   Clear